Location: Cruquius
(52.3348°N, 4.6319°E)
Time: 21:43:01
(UTC+00:00)

Meteor 1-18 Rocket - Pass Details

Date: 12 May 2021
Orbit: 837 x 909 km, 81.2° (Epoch: 23 June)

Event Time Altitude Azimuth Distance (km) Brightness Sun altitude
Exits shadow 23:10:35 27° 211° (SSW) 1,599 5.2 -19.0°
Maximum altitude 23:13:43 66° 286° (WNW) 928 4.4 -19.1°
Drops below altitude 10° 23:19:18 10° 9° (N) 2,471 7.8 -19.2°
Sets 23:21:44 0° 12° (NNE) 3,406 8.8 -19.2°
